Location: Borz?cin
(51.1714°N, 19.6030°E)
Time: 17:27:13
(UTC+00:00)

Cosmos 1346 Rocket - Pass Details

Date: 19 May 2025
Orbit: 485 x 499 km, 81.2° (Epoch: 20 June)

Event Time Altitude Azimuth Distance (km) Brightness Sun altitude
Rises 19:30:38 0° 348° (NNW) 2,590 7.4 -7.9°
Reaches altitude 10° 19:32:46 10° 350° (N) 1,699 6.3 -8.1°
Maximum altitude 19:36:29 79° 76° (ENE) 507 2.6 -8.5°
Drops below altitude 10° 19:40:10 10° 165° (SSE) 1,676 4.7 -8.9°
Enters shadow 19:40:15 - 165° (SSE) 1,712 4.8 -8.9°
